Portada
METAR-TAF:

METAR-TAF

Aeropuertos :

Barrancabermeja, Colombia

Aeropuerto Yariguíes

latitud: 07-01N, longitud: 073-48W, altitud: 126 m

Observación

El informe se hizo hace 10 horas y 52 minutos, a las 23:00 UTC
Viento 3 kt del este
Temperatura 28°C
Humedad 89%
Presión 1007 hPa
Visibilidad 10 km o más
Nubes dispersas a una altura de 2000 ft
Cielo nuboso a una altura de 10000 ft

METAR: SKEJ 222300Z 08003KT 9999 SCT020 BKN100 28/26 A2974

Hora: 04:52 (09:52 UTC)


TAF: falta

Observaciones y pronósticos meteorológicos de más de 4000 aeropuertos (mensajes METAR y TAF).

Los puntos amarillos y rojos representan las estaciones disponibles.

Ponga el ratón en el punto deseado para ver el nombre de la estación.

Haga clic para ver las observaciones y los pronósticos meteorológicos.

Para cambiar el mapa : haga clic en los botones verdes con una cruz de color negro para hacer un zoom, en el botón verde con un guión para alejar o en las flechas verdes para mapas adyacentes.


METAR-TAF: